Kemerovo, Russia

5:14 PM +07 on November 15, 2019 (GMT +0700)
Kemerovo

Weather History for UNEE - October, 2019

Change the Weather History Date:

Tuesday, October 22, 2019

  Actual Average Record
Temperature  
Mean Temperature 20 °F -  
Max Temperature 26 °F - - ()
Min Temperature 15 °F - - ()
Degree Days  
Heating Degree Days 44    
Moisture  
Dew Point 16 °F    
Average Humidity 78    
Maximum Humidity 93    
Minimum Humidity 69    
Precipitation  
Precipitation 0.00 in - - ()
Sea Level Pressure  
Sea Level Pressure 30.46 in    
Wind  
Wind Speed 8 mph ()    
Max Wind Speed 16 mph    
Max Gust Speed -    
Visibility 6.2 miles    
Events      
T = Trace of Precipitation, MM = Missing Value Source: Averaged Metar Reports

Daily Weather History Graph

Daily Weather History Graph

Search for Another Location

Airport or City:

Astronomy

Oct. 22, 2019 Rise Set
Actual Time 7:58 AM +07 6:00 PM +07
Civil Twilight 7:20 AM +07 6:38 PM +07
Nautical Twilight 6:38 AM +07 7:20 PM +07
Astronomical Twilight 5:56 AM +07 8:02 PM +07
Moon No Moon Rise 4:11 PM +07 (10/22)
Length of Visible Light 11h 17m
Length of Day
10h 02m
Last Quarter, 42% of the Moon is Illuminated
Oct 22
Last Quarter
Oct 28
New
Nov 4
First Quarter
Nov 12
Full
Nov 20
Last Quarter

Hourly Weather History & Observations

Time (+07) Temp. Windchill Dew Point Humidity Pressure Visibility Wind Dir Wind Speed Gust Speed Precip Events Conditions
12:30 AM 17.6 °F 8.4 °F 14.0 °F 86% 30.51 in 6.2 mi South 6.7 mph - N/A   Scattered Clouds
1:00 AM 17.6 °F 8.4 °F 14.0 °F 86% 30.51 in 6.2 mi South 6.7 mph - N/A   Scattered Clouds
1:30 AM 17.6 °F 10.8 °F 14.0 °F 86% 30.51 in 6.2 mi South 4.5 mph - N/A   Scattered Clouds
2:00 AM 17.6 °F 8.4 °F 12.2 °F 79% 30.51 in 6.2 mi SSE 6.7 mph - N/A   Scattered Clouds
4:00 AM 17.6 °F 6.6 °F 14.0 °F 86% 30.51 in - South 8.9 mph - N/A   Clear
5:00 AM 17.6 °F 6.6 °F 14.0 °F 86% 30.51 in - South 8.9 mph - N/A   Clear
5:30 AM 17.6 °F 6.6 °F 12.2 °F 79% 30.51 in - South 8.9 mph - N/A   Clear
6:30 AM 15.8 °F 4.4 °F 14.0 °F 93% 30.51 in 6.2 mi South 8.9 mph - N/A   Partly Cloudy
7:30 AM 15.8 °F 4.4 °F 14.0 °F 93% 30.51 in 6.2 mi SSE 8.9 mph - N/A   Partly Cloudy
8:00 AM 17.6 °F 8.4 °F 14.0 °F 86% 30.51 in - SSE 6.7 mph - N/A   Clear
8:30 AM 17.6 °F 6.6 °F 15.8 °F 93% 30.51 in 6.2 mi SSE 8.9 mph - N/A   Mostly Cloudy
9:00 AM 19.4 °F 7.4 °F 15.8 °F 86% 30.51 in 6.2 mi SSE 11.2 mph - N/A   Mostly Cloudy
9:30 AM 19.4 °F 7.4 °F 15.8 °F 86% 30.51 in 6.2 mi SSE 11.2 mph - N/A   Mostly Cloudy
10:00 AM 21.2 °F 8.5 °F 15.8 °F 80% 30.51 in 6.2 mi South 13.4 mph - N/A   Mostly Cloudy
10:30 AM 23.0 °F 10.8 °F 17.6 °F 80% 30.51 in 6.2 mi South 13.4 mph - N/A   Overcast
11:00 AM 23.0 °F 10.8 °F 15.8 °F 74% 30.51 in 6.2 mi South 13.4 mph - N/A   Scattered Clouds
11:30 AM 23.0 °F 10.8 °F 15.8 °F 74% 30.48 in 6.2 mi South 13.4 mph - N/A   Scattered Clouds
12:00 PM 23.0 °F 10.8 °F 17.6 °F 80% 30.48 in 6.2 mi South 13.4 mph - N/A   Scattered Clouds
12:30 PM 24.8 °F 13.1 °F 17.6 °F 74% 30.48 in 6.2 mi South 13.4 mph - N/A   Mostly Cloudy
2:00 PM 26.6 °F 14.4 °F 17.6 °F 69% 30.45 in 6.2 mi South 15.7 mph - N/A   Mostly Cloudy
3:00 PM 26.6 °F 14.4 °F 17.6 °F 69% 30.45 in 6.2 mi South 15.7 mph - N/A   Scattered Clouds
4:00 PM 26.6 °F 16.4 °F 17.6 °F 69% 30.42 in 6.2 mi South 11.2 mph - N/A   Scattered Clouds
5:00 PM 26.6 °F 16.4 °F 17.6 °F 69% 30.42 in 6.2 mi SSE 11.2 mph - N/A   Partly Cloudy
5:30 PM 26.6 °F 17.7 °F 17.6 °F 69% 30.42 in 6.2 mi SSE 8.9 mph - N/A   Partly Cloudy
6:00 PM 24.8 °F 15.5 °F 15.8 °F 69% 30.39 in 6.2 mi SSE 8.9 mph - N/A   Partly Cloudy
7:00 PM 24.8 °F 15.5 °F 17.6 °F 74% 30.39 in - SSE 8.9 mph - N/A   Clear
7:30 PM 24.8 °F 15.5 °F 15.8 °F 69% 30.39 in - SSE 8.9 mph - N/A   Clear
8:30 PM 24.8 °F 15.5 °F 15.8 °F 69% 30.39 in - SSE 8.9 mph - N/A   Clear
9:30 PM 23.0 °F 11.9 °F 15.8 °F 74% 30.36 in - SSE 11.2 mph - N/A   Clear
10:00 PM 24.8 °F 14.2 °F 15.8 °F 69% 30.36 in - SSE 11.2 mph - N/A   Clear
10:30 PM 23.0 °F 13.2 °F 15.8 °F 74% 30.36 in - SSE 8.9 mph - N/A   Clear
11:00 PM 23.0 °F 13.2 °F 15.8 °F 74% 30.33 in - SSE 8.9 mph - N/A   Clear
11:30 PM 23.0 °F 13.2 °F 15.8 °F 74% 30.33 in - SSE 8.9 mph - N/A   Clear